Wind_Speed
21 16 24 40 30 29 27 31 33 29 27 28 26 25 28 23 21 22 20 15 17 21 16 15 17 12 8 5 6 11 17 17 22 19 19 17 18 15 16 14 14 12 10 12
19 28 38 22 32 31 34 32 30 29 28 24 23 26 26 22 22 20 19 17 16 19 13 10 12 13 10 10 10 11 14 17 21 18 19 18 18 19 17 17 16 14 13 11
23 37 22 29 30 30 31 31 28 31 25 27 24 26 25 24 25 20 19 20 15 15 18 20 6 13 13 13 14 14 16 20 20 17 20 14 18 4 10 5 7 14 11 10
24 26 32 30 33 30 29 28 29 28 23 20 19 19 25 20 21 20 20 17 16 16 21 16 6 11 15 15 15 16 17 19 19 19 15 12 9 9 10 12 10 8 8 8
34 22 27 31 37 29 34 21 27 28 25 21 23 14 29 17 17 16 13 14 16 15 15 8 15 15 18 18 17 18 18 19 16 18 15 12 10 8 5 4 1 3 6 8
29 26 28 29 26 32 26 26 29 26 19 19 26 19 29 19 19 17 16 17 17 13 13 11 17 19 20 19 20 20 20 17 17 15 12 14 12 3 3 3 1 3 6 8
24 28 31 30 29 29 31 23 17 19 17 21 17 19 23 21 19 18 18 15 14 10 13 18 17 14 18 20 21 21 20 17 16 13 10 7 6 3 1 3 2 4 4 2
13 19 28 24 33 27 29 25 16 25 17 19 21 26 20 21 21 19 15 10 12 16 14 16 15 14 18 21 22 21 20 18 16 14 12 10 8 7 4 3 2 3 1 3
7 15 27 30 29 28 30 28 31 22 21 19 16 18 30 27 20 14 7 12 14 14 15 15 15 15 20 22 22 22 20 18 17 15 12 10 7 3 0 2 1 2 4 6
5 14 23 27 29 33 31 21 25 19 25 24 20 22 14 11 15 12 13 9 11 16 16 15 15 14 21 22 21 21 19 18 16 15 12 11 7 3 2 1 3 4 5 7
9 9 18 23 26 28 24 25 23 21 18 16 15 14 12 2 9 6 9 13 12 17 16 16 15 17 21 22 21 19 18 17 16 15 11 9 7 4 4 5 5 5 6 9
15 7 16 23 20 21 29 25 25 19 24 17 13 15 5 2 5 5 11 15 19 17 16 16 16 15 20 19 20 18 18 17 16 14 13 15 7 8 6 6 6 6 8 8
6 6 11 19 17 20 20 28 24 21 11 19 17 16 7 6 8 10 10 15 19 18 18 17 16 15 14 18 19 18 17 17 16 14 14 10 11 6 8 5 6 7 7 6
2 7 15 11 7 15 8 24 31 26 17 19 19 9 6 7 8 5 14 19 18 17 17 17 16 15 14 19 19 18 16 17 16 13 15 18 10 9 8 6 8 8 5 2
2 8 18 20 13 15 21 29 29 29 24 22 19 18 13 13 11 13 11 16 17 18 18 17 16 15 14 17 18 18 17 16 15 14 18 16 12 12 10 9 8 8 6 6
4 4 15 14 15 10 23 31 26 29 26 27 21 14 11 11 14 15 12 14 16 17 18 17 16 16 15 16 18 18 17 17 15 14 19 17 11 16 11 10 11 10 10 9
15 5 8 8 6 7 18 23 22 22 25 26 17 6 18 8 8 11 13 14 15 16 17 17 15 15 13 18 18 19 18 18 15 14 20 20 15 13 11 10 13 11 12 12
14 11 6 3 8 4 15 15 21 23 18 23 11 3 11 16 9 16 8 15 15 17 16 16 13 13 19 20 20 20 19 18 16 15 17 18 16 13 11 11 13 11 11 15
11 6 4 4 6 5 26 6 10 9 10 17 14 10 3 0 19 16 17 16 10 14 14 14 17 20 21 20 22 20 20 18 18 17 15 23 18 18 14 13 13 13 12 13
8 7 4 4 5 5 2 18 26 10 10 18 15 13 13 11 1 9 13 12 13 6 14 14 21 22 21 21 23 19 19 18 17 18 16 17 23 19 17 14 14 12 12 12
7 3 9 6 3 7 15 26 22 8 2 9 12 13 13 12 7 7 9 9 10 9 15 22 22 19 22 22 23 18 20 17 18 19 17 14 19 18 18 14 13 15 13 15
3 3 2 3 2 4 17 12 10 2 4 12 13 12 10 9 8 9 9 8 9 9 8 22 17 19 24 24 23 18 18 19 18 20 19 18 20 16 15 15 16 16 17 18
2 6 4 5 4 7 15 9 7 9 12 15 14 12 11 10 10 9 7 7 9 7 7 21 19 21 23 24 24 18 21 20 19 21 20 22 17 21 17 19 18 16 17 17
8 8 5 7 11 16 10 14 14 12 14 13 14 11 12 10 9 8 6 6 7 8 9 12 21 17 19 24 24 20 22 21 21 21 22 23 18 22 17 18 17 14 17 20
3 8 9 2 5 7 12 12 12 11 9 12 12 12 10 8 8 10 7 6 7 8 10 11 17 18 21 24 24 23 25 23 21 22 23 22 19 21 18 15 14 11 6 20
5 6 6 5 10 7 12 13 13 13 8 8 9 12 11 9 8 10 10 8 6 7 11 9 18 22 24 25 24 25 26 24 24 22 23 22 20 19 19 16 10 11 13 9
Wind_Direction
224 218 222 220 221 240 237 240 246 253 252 247 254 261 266 276 274 261 268 266 266 260 260 241 259 260 127 142 146 152 157 160 163 165 179 185 201 188 216 217 215 215 223 232
230 219 225 232 228 234 242 251 253 262 265 260 261 257 259 248 252 261 263 240 254 281 292 275 261 126 139 147 155 161 166 173 166 172 182 194 196 193 207 212 214 215 221 243
224 237 225 235 234 235 238 238 245 256 265 266 268 269 270 268 270 264 257 270 252 257 278 281 251 138 142 148 157 166 170 161 163 174 192 200 187 155 174 190 215 214 221 232
248 243 242 227 237 231 242 233 243 249 251 257 254 269 256 262 264 257 255 253 255 246 251 249 193 140 149 150 154 157 157 160 175 184 185 164 161 195 214 217 167 168 204 226
243 247 234 239 238 228 245 244 248 247 251 261 254 259 267 269 268 269 276 265 259 247 259 251 133 146 145 143 147 150 151 171 181 162 167 179 216 209 164 186 189 225 248 245
252 252 254 247 243 248 247 240 251 258 257 247 243 242 264 258 263 270 270 261 246 252 235 227 123 140 134 144 146 150 160 174 152 178 170 177 206 59 100 156 89 291 274 275
249 244 252 250 253 235 237 236 234 236 235 241 244 241 255 265 266 272 273 266 268 264 248 127 136 142 140 148 147 154 166 149 167 176 156 166 139 153 228 258 309 279 270 241
277 269 230 235 239 236 225 232 228 223 226 241 240 252 260 254 258 253 279 227 239 232 116 127 141 139 149 150 154 163 161 160 169 165 164 160 162 198 221 171 245 247 204 169
321 287 259 226 244 240 234 221 235 249 240 245 255 243 236 243 245 241 239 233 235 129 129 137 142 147 149 152 162 160 161 163 170 163 159 160 165 212 149 108 183 186 145 153
295 288 277 271 218 241 236 228 223 230 232 246 236 240 253 186 224 226 196 222 200 135 137 145 145 153 149 155 162 159 162 163 166 160 160 168 166 182 207 356 119 139 154 162
250 222 274 282 239 216 227 227 221 241 225 236 246 264 295 83 171 174 195 195 184 141 147 147 150 148 150 156 158 160 166 162 163 162 161 148 152 160 125 105 137 141 147 143
299 278 265 266 271 246 233 226 230 218 218 228 247 237 68 134 229 175 260 178 145 142 148 148 150 153 153 161 155 163 161 166 165 165 167 149 144 129 116 119 124 139 154 165
336 261 261 258 267 258 255 224 233 237 237 219 232 250 143 148 208 216 181 147 141 144 149 152 152 158 157 162 160 164 165 163 167 170 140 145 130 122 125 126 127 146 176 181
296 258 262 260 309 337 312 240 230 222 207 226 220 192 198 181 189 177 134 126 138 150 151 153 155 160 162 159 165 163 170 162 164 161 156 141 135 136 136 138 134 147 164 129
174 277 285 259 247 285 298 286 240 224 198 217 226 226 219 165 173 112 117 139 145 153 160 154 164 159 162 159 160 159 169 161 159 160 133 135 137 149 136 147 137 135 141 80
229 261 298 275 246 280 300 285 277 219 201 216 239 176 44 97 112 128 146 155 160 158 160 158 165 159 161 160 160 159 164 156 162 152 133 132 134 147 138 141 136 139 134 121
266 289 322 256 231 301 281 243 249 245 209 209 204 194 130 210 98 120 147 158 161 156 160 163 166 161 158 161 163 160 158 156 161 158 132 139 140 143 144 134 135 127 135 135
263 287 294 10 76 278 278 237 249 223 197 205 102 317 135 173 106 44 41 171 167 162 162 160 164 156 156 161 157 164 154 157 166 163 149 149 151 151 155 146 140 136 140 145
226 248 281 237 191 315 301 351 294 206 136 357 177 205 168 16 100 49 29 12 156 162 155 156 156 154 157 161 157 166 157 167 168 160 169 155 151 152 155 151 148 143 149 150
195 222 237 310 260 230 85 329 320 39 82 16 5 47 46 351 109 41 16 10 354 327 147 153 156 155 157 161 159 167 161 173 172 160 170 153 144 153 155 145 148 145 150 158
217 221 249 271 237 294 332 327 317 173 78 33 29 31 26 27 19 340 356 3 328 315 157 153 155 157 158 160 162 174 165 178 176 159 163 157 134 131 124 131 141 135 127 126
317 236 273 232 195 251 313 346 52 334 74 38 41 29 19 10 351 348 354 337 320 321 165 149 154 156 159 164 167 182 166 178 177 159 159 144 136 145 132 139 142 136 136 126
327 3 316 359 75 20 314 19 33 16 45 29 17 13 9 5 2 352 331 304 296 298 291 155 158 156 162 169 173 182 167 181 174 160 152 139 154 131 143 145 149 146 144 141
342 7 327 346 8 357 13 338 15 24 29 15 354 3 0 354 339 330 288 273 263 262 263 183 158 159 166 173 177 182 168 186 173 157 149 146 162 139 156 154 166 176 183 157
287 334 323 123 23 336 353 355 355 349 21 6 356 339 339 339 347 330 309 279 258 255 230 226 163 165 170 174 178 180 175 185 170 157 154 155 165 149 169 180 179 180 152 164
319 344 0 340 355 312 329 329 356 347 358 344 352 327 325 348 351 336 332 325 302 259 254 229 168 166 171 177 181 182 180 183 165 161 161 168 170 166 177 173 136 108 119 104
Height
724 735 724 700 705 703 704 701 704 694 682 689 690 689 676 669 667 667 668 668 669 666 660 661 664 667 670 674 677 680 684 688 694 700 707 712 717 720 723 725 727 729 730 732
725 714 681 710 701 705 701 703 701 687 679 681 681 679 665 662 662 658 658 659 660 660 657 656 657 663 668 673 677 681 684 688 694 700 707 711 714 717 720 722 723 725 727 729
717 679 707 700 702 704 698 699 698 697 689 674 680 681 671 656 650 647 647 647 649 654 655 652 653 661 667 673 677 681 685 689 695 701 706 710 712 714 717 718 721 722 724 726
704 695 694 694 695 694 694 680 689 689 698 700 681 703 668 662 654 647 643 644 644 644 643 644 647 659 666 672 676 681 686 691 697 702 706 708 711 713 715 717 719 721 723 723
693 691 693 692 671 682 674 685 679 680 686 689 688 698 647 655 655 648 642 638 636 634 634 635 646 657 664 671 676 682 688 693 698 702 705 708 710 712 713 716 717 719 720 720
690 685 683 675 678 674 671 682 682 678 678 695 674 690 651 662 651 642 635 629 627 626 627 628 644 657 663 672 678 683 690 695 698 703 705 708 709 711 713 715 717 718 718 718
690 688 679 676 678 668 675 682 700 704 694 684 666 675 652 642 632 631 629 624 622 621 621 632 644 654 663 672 678 685 691 695 700 703 706 708 710 712 713 714 715 716 716 717
711 699 676 667 667 671 670 671 678 700 688 678 666 663 645 620 615 615 609 614 616 617 624 635 645 654 663 672 679 686 691 696 700 703 706 708 710 712 712 714 715 715 715 716
720 697 666 660 660 660 661 672 644 669 655 668 644 630 619 609 610 608 613 613 616 616 626 637 645 655 663 672 680 685 690 695 700 703 705 708 710 711 712 713 713 714 715 716
720 716 678 662 652 650 652 641 671 657 683 680 651 643 627 608 610 604 611 613 613 618 628 639 648 656 665 673 680 685 690 695 698 702 705 706 709 711 712 713 713 714 715 716
712 720 685 665 647 652 648 648 643 646 648 664 670 646 599 602 600 605 604 607 610 618 628 638 649 658 666 673 679 684 689 693 697 700 703 704 708 710 712 711 713 714 715 717
706 710 691 671 640 635 633 636 636 645 653 642 646 641 593 596 594 595 598 598 606 616 628 638 648 658 666 672 678 683 687 692 696 698 701 704 707 709 711 712 713 714 715 717
723 697 690 677 660 642 641 628 625 630 632 647 654 640 592 593 595 590 591 596 608 617 629 638 648 657 665 671 677 682 686 690 694 697 700 704 707 709 710 712 713 714 715 717
722 714 699 686 682 691 666 632 620 626 639 638 629 625 608 601 600 593 589 600 610 619 630 637 647 655 662 669 675 680 685 688 692 695 699 702 706 709 711 712 712 714 716 716
726 712 694 680 691 698 696 663 618 615 614 632 617 613 603 597 595 599 601 606 615 623 630 637 646 653 660 667 673 678 683 687 691 694 698 702 706 709 711 712 714 716 717 719
722 708 690 676 671 694 693 656 631 600 604 609 608 606 596 589 593 602 608 610 618 622 627 637 644 651 657 665 671 677 682 686 691 694 697 702 706 709 710 713 715 717 718 720
696 702 689 674 672 691 680 634 625 604 590 596 616 603 600 612 599 600 606 610 615 621 626 635 642 649 656 663 669 676 680 686 691 693 697 702 706 709 711 713 716 718 720 722
687 688 692 681 684 692 642 598 596 590 589 584 596 606 596 600 596 605 601 604 612 617 623 632 639 647 655 663 670 676 680 685 690 692 696 701 705 708 711 714 716 719 721 724
674 684 692 683 682 681 646 612 600 596 604 611 606 599 597 593 605 621 613 610 608 614 619 628 637 646 655 662 669 675 679 684 688 691 695 698 703 707 711 714 716 719 722 725
662 673 692 675 681 669 645 632 604 596 631 627 617 610 614 611 620 637 626 621 618 615 618 627 636 645 654 662 668 673 678 682 685 689 693 696 701 705 710 714 716 720 723 725
667 678 684 680 686 681 658 642 617 637 662 637 631 629 628 635 638 634 627 625 622 618 615 624 635 643 652 660 667 672 676 681 684 688 692 696 700 705 709 714 717 720 724 726
691 685 679 667 673 691 671 649 652 662 646 640 639 640 636 635 632 629 626 626 625 620 614 622 633 642 651 659 665 670 674 679 682 687 691 696 701 705 710 714 718 721 724 727
697 700 695 685 690 692 681 671 666 656 651 648 647 642 638 636 634 631 630 629 625 623 623 621 631 641 649 657 663 667 673 677 681 686 691 696 702 705 711 714 718 721 723 726
706 700 698 688 699 696 687 677 665 662 660 657 654 647 644 643 637 634 632 629 626 623 622 620 628 638 647 654 661 665 670 675 679 684 690 696 701 705 711 714 716 718 720 724
712 706 698 700 697 698 692 685 674 669 668 666 662 659 651 647 644 639 634 630 627 623 621 619 624 634 644 652 658 662 668 672 677 683 689 695 700 704 709 712 714 715 716 719
713 709 705 702 694 692 686 683 681 679 673 672 669 662 655 650 647 643 636 630 626 623 620 618 622 630 639 648 654 659 664 669 674 681 687 693 698 702 707 709 712 715 716 718